User: anonymous   Login
Location: Kunchanapalle
(16.4623°N, 80.6176°E)
Time: 21:23:51
(UTC+00:00)
Language:

Cosmos 1315 Rocket - Orbit

View from above orbital plane
View from above orbital plane
View from above satellite
View from above satellite

Ground track
Ground track

The orbit data is extracted from the following two-line orbital elements,

1 12904U 81103B   21169.55411774 -.00000059  00000-0 -56023-5 0  9999
2 12904  81.1777  44.4594 0027029 291.2017  68.6319 15.06028872712654
Epoch (UTC): 18 June 2021 13:17:55
Eccentricity: 0.0027029
inclination: 81.1777°
perigee height: 529 km
apogee height: 567 km
right ascension of ascending node: 44.4594°
argument of perigee: 291.2017°
revolutions per day: 15.06028872
mean anomaly at epoch: 68.6319°
orbit number at epoch: 71265

The dashed part of the orbit path shows where the satellite is in the earth's shadow,  

DLR